| time (UTC) | temp F | wind direction | speed MPH | gust MPH | rain 1hr in | rain 24hr in | rain mn in | humidity % | barometer mb |
| 20260510152804 | 76 | 38 | 4.0 | 8.0 | 0.00 | 1.28 | 0.01 | 85 | 1016.1 |
| 20260510152307 | 76 | 16 | 4.0 | 6.0 | 0.00 | 1.28 | 0.01 | 85 | 1016.2 |
| 20260510151804 | 76 | 52 | 3.0 | 6.0 | 0.00 | 1.28 | 0.01 | 85 | 1016.2 |
| 20260510151305 | 76 | 32 | 3.0 | 6.0 | 0.00 | 1.28 | 0.01 | 86 | 1016.2 |
| 20260510150805 | 75 | 84 | 2.0 | 6.0 | 0.00 | 1.28 | 0.01 | 89 | 1016.1 |
| 20260510150304 | 74 | 67 | 4.0 | 7.0 | 0.00 | 1.28 | 0.01 | 92 | 1016.1 |
| 20260510145804 | 74 | 69 | 4.0 | 8.0 | 0.00 | 1.28 | 0.01 | 92 | 1016.1 |
| 20260510145306 | 74 | 40 | 2.0 | 6.0 | 0.00 | 1.28 | 0.01 | 93 | 1016.1 |
| 20260510144804 | 73 | 64 | 2.0 | 3.0 | 0.00 | 1.28 | 0.01 | 93 | 1016.2 |
| 20260510144305 | 72 | 74 | 3.0 | 7.0 | 0.00 | 1.28 | 0.01 | 93 | 1016.2 |
| 20260510143804 | 72 | 53 | 3.0 | 9.0 | 0.00 | 1.28 | 0.01 | 93 | 1016.2 |
| 20260510143304 | 72 | 73 | 5.0 | 7.0 | 0.00 | 1.28 | 0.01 | 93 | 1016.2 |
| 20260510142805 | 72 | 70 | 3.0 | 6.0 | 0.00 | 1.28 | 0.01 | 93 | 1016.0 |
| 20260510142306 | 72 | 83 | 5.0 | 8.0 | 0.00 | 1.28 | 0.01 | 94 | 1016.0 |
| 20260510140305 | 71 | 46 | 3.0 | 6.0 | 0.00 | 1.28 | 0.01 | 94 | 1016.1 |
| 20260510135804 | 71 | 78 | 2.0 | 7.0 | 0.00 | 1.28 | 0.01 | 94 | 1016.1 |
| 20260510135306 | 71 | 93 | 2.0 | 5.0 | 0.00 | 1.28 | 0.01 | 94 | 1016.0 |
| 20260510134804 | 70 | 61 | 3.0 | 6.0 | 0.00 | 1.28 | 0.01 | 94 | 1016.0 |
| 20260510133805 | 70 | 69 | 2.0 | 5.0 | 0.00 | 1.28 | 0.01 | 94 | 1016.1 |
| 20260510133304 | 70 | 56 | 2.0 | 5.0 | 0.00 | 1.28 | 0.01 | 94 | 1016.1 |
| 20260510132805 | 70 | 38 | 2.0 | 5.0 | 0.00 | 1.28 | 0.01 | 94 | 1016.0 |
| 20260510132306 | 70 | 78 | 2.0 | 3.0 | 0.00 | 1.28 | 0.01 | 94 | 1015.9 |
| 20260510131805 | 70 | 44 | 3.0 | 6.0 | 0.00 | 1.28 | 0.01 | 94 | 1015.8 |
| 20260510131304 | 70 | 98 | 2.0 | 5.0 | 0.00 | 1.28 | 0.01 | 94 | 1015.7 |
| 20260510130805 | 70 | 49 | 2.0 | 5.0 | 0.00 | 1.28 | 0.01 | 94 | 1015.6 |
| 20260510130304 | 70 | 56 | 3.0 | 6.0 | 0.00 | 1.28 | 0.01 | 94 | 1015.5 |
| 20260510125804 | 70 | 61 | 2.0 | 5.0 | 0.00 | 1.28 | 0.01 | 94 | 1015.4 |
| 20260510125307 | 70 | 94 | 3.0 | 5.0 | 0.00 | 1.28 | 0.01 | 95 | 1015.3 |
| 20260510123804 | 69 | 86 | 1.0 | 2.0 | 0.00 | 1.28 | 0.01 | 95 | 1015.1 |
| 20260510123304 | 69 | 84 | 1.0 | 3.0 | 0.00 | 1.28 | 0.01 | 95 | 1015.0 |
| 20260510122804 | 68 | 59 | 1.0 | 3.0 | 0.00 | 1.28 | 0.01 | 95 | 1014.8 |
| 20260510121305 | 68 | 70 | 1.0 | 2.0 | 0.00 | 1.28 | 0.01 | 95 | 1014.8 |
| 20260510120805 | 68 | 92 | 0.0 | 2.0 | 0.00 | 1.28 | 0.01 | 95 | 1014.7 |
| 20260510115804 | 68 | 86 | 1.0 | 2.0 | 0.00 | 1.28 | 0.01 | 94 | 1014.4 |
| 20260510115306 | 68 | 86 | 0.0 | 1.0 | 0.00 | 1.28 | 0.01 | 94 | 1014.6 |
| 20260510114804 | 68 | 81 | 1.0 | 2.0 | 0.00 | 1.28 | 0.01 | 95 | 1014.6 |
| 20260510114304 | 68 | 80 | 1.0 | 5.0 | 0.00 | 1.28 | 0.01 | 94 | 1014.5 |
| 20260510113804 | 68 | 98 | 2.0 | 3.0 | 0.00 | 1.28 | 0.01 | 94 | 1014.4 |
| 20260510113304 | 67 | 78 | 1.0 | 2.0 | 0.00 | 1.28 | 0.01 | 95 | 1014.3 |
| 20260510112805 | 67 | 93 | 1.0 | 5.0 | 0.00 | 1.28 | 0.01 | 95 | 1014.3 |
| 20260510112306 | 67 | 68 | 1.0 | 5.0 | 0.00 | 1.28 | 0.01 | 94 | 1014.1 |
| 20260510111804 | 67 | 67 | 1.0 | 3.0 | 0.00 | 1.28 | 0.01 | 95 | 1013.9 |
| 20260510111304 | 67 | 92 | 2.0 | 5.0 | 0.00 | 1.28 | 0.01 | 94 | 1013.8 |
| 20260510110304 | 67 | 95 | 1.0 | 3.0 | 0.00 | 1.28 | 0.01 | 95 | 1013.7 |
| 20260510105805 | 67 | 51 | 1.0 | 3.0 | 0.00 | 1.28 | 0.01 | 95 | 1013.7 |
| 20260510104805 | 67 | 95 | 2.0 | 3.0 | 0.00 | 1.28 | 0.01 | 94 | 1013.5 |
| 20260510104304 | 67 | 85 | 0.0 | 2.0 | 0.00 | 1.28 | 0.01 | 94 | 1013.5 |
| 20260510103805 | 67 | 79 | 1.0 | 3.0 | 0.00 | 1.28 | 0.01 | 94 | 1013.3 |
| 20260510102804 | 67 | 100 | 1.0 | 3.0 | 0.00 | 1.28 | 0.01 | 94 | 1013.1 |
| 20260510102306 | 67 | 153 | 0.0 | 1.0 | 0.00 | 1.28 | 0.01 | 94 | 1013.2 |
| 20260510101804 | 67 | 76 | 0.0 | 1.0 | 0.00 | 1.28 | 0.01 | 94 | 1013.1 |
| 20260510100804 | 66 | 92 | 0.0 | 2.0 | 0.00 | 1.28 | 0.01 | 94 | 1012.9 |
| 20260510100304 | 67 | 139 | 0.0 | 1.0 | 0.00 | 1.28 | 0.01 | 94 | 1012.9 |
| 20260510095805 | 67 | 109 | 0.0 | 1.0 | 0.00 | 1.28 | 0.01 | 94 | 1013.0 |
| 20260510095306 | 67 | 102 | 0.0 | 1.0 | 0.00 | 1.28 | 0.01 | 94 | 1013.0 |
| 20260510094805 | 67 | 103 | 0.0 | 1.0 | 0.01 | 1.28 | 0.01 | 94 | 1012.9 |
| 20260510094304 | 67 | 103 | 0.0 | 1.0 | 0.01 | 1.28 | 0.01 | 94 | 1012.9 |
| 20260510093804 | 67 | 107 | 0.0 | 1.0 | 0.01 | 1.28 | 0.01 | 94 | 1012.9 |
| 20260510093305 | 67 | 107 | 0.0 | 1.0 | 0.01 | 1.28 | 0.01 | 94 | 1012.7 |
| 20260510092804 | 67 | 53 | 0.0 | 1.0 | 0.01 | 1.28 | 0.01 | 94 | 1012.7 |
| 20260510091804 | 67 | 84 | 0.0 | 1.0 | 0.01 | 1.28 | 0.01 | 95 | 1012.6 |
| 20260510091304 | 67 | 53 | 0.0 | 3.0 | 0.01 | 1.28 | 0.01 | 95 | 1012.7 |
| 20260510090804 | 67 | 54 | 1.0 | 3.0 | 0.01 | 1.28 | 0.01 | 95 | 1012.7 |
| 20260510090305 | 67 | 72 | 1.0 | 3.0 | 0.01 | 1.28 | 0.01 | 95 | 1012.7 |
| 20260510085804 | 67 | 108 | 0.0 | 2.0 | 0.01 | 1.28 | 0.01 | 95 | 1012.7 |
| 20260510085306 | 67 | 42 | 1.0 | 3.0 | 0.01 | 1.28 | 0.01 | 95 | 1012.6 |
| 20260510084804 | 67 | 356 | 1.0 | 3.0 | 0.00 | 1.27 | 0.00 | 94 | 1012.6 |
| 20260510084304 | 66 | 349 | 1.0 | 3.0 | 0.00 | 1.27 | 0.00 | 94 | 1012.5 |
| 20260510083805 | 66 | 351 | 2.0 | 3.0 | 0.00 | 1.27 | 0.00 | 94 | 1012.4 |
| 20260510083304 | 66 | 346 | 1.0 | 3.0 | 0.00 | 1.27 | 0.00 | 94 | 1012.3 |
| 20260510082804 | 66 | 344 | 2.0 | 3.0 | 0.00 | 1.27 | 0.00 | 94 | 1012.4 |
| 20260510082306 | 66 | 343 | 1.0 | 3.0 | 0.00 | 1.27 | 0.00 | 94 | 1012.3 |
| 20260510081804 | 65 | 357 | 0.0 | 1.0 | 0.00 | 1.27 | 0.00 | 94 | 1012.3 |
| 20260510081304 | 65 | 342 | 0.0 | 1.0 | 0.00 | 1.27 | 0.00 | 94 | 1012.3 |
| 20260510080304 | 65 | 352 | 1.0 | 2.0 | 0.00 | 1.27 | 0.00 | 94 | 1012.1 |
| 20260510075805 | 65 | 344 | 0.0 | 1.0 | 0.00 | 1.27 | 0.00 | 94 | 1012.2 |
| 20260510074804 | 65 | 342 | 1.0 | 2.0 | 0.00 | 1.27 | 0.00 | 94 | 1012.2 |
| 20260510073805 | 65 | 359 | 0.0 | 0.0 | 0.00 | 1.27 | 0.00 | 94 | 1012.0 |
| 20260510073304 | 65 | 359 | 0.0 | 0.0 | 0.00 | 1.27 | 0.00 | 94 | 1012.0 |
| 20260510072804 | 66 | 359 | 0.0 | 1.0 | 0.00 | 1.27 | 0.00 | 94 | 1011.9 |
| 20260510072306 | 66 | 358 | 0.0 | 1.0 | 0.00 | 1.27 | 0.00 | 94 | 1012.0 |
| 20260510071804 | 65 | 18 | 1.0 | 2.0 | 0.00 | 1.27 | 0.00 | 94 | 1012.0 |
| 20260510071304 | 65 | 336 | 0.0 | 1.0 | 0.00 | 1.27 | 0.00 | 94 | 1011.9 |
| 20260510064804 | 66 | 355 | 0.0 | 1.0 | 0.00 | 1.27 | 0.00 | 94 | 1012.0 |
| 20260510063304 | 66 | 356 | 0.0 | 1.0 | 0.00 | 1.27 | 0.00 | 94 | 1012.0 |
| 20260510062804 | 66 | 359 | 1.0 | 2.0 | 0.00 | 1.27 | 0.00 | 94 | 1012.0 |
| 20260510062306 | 66 | 354 | 1.0 | 2.0 | 0.00 | 1.27 | 0.00 | 94 | 1012.1 |
| 20260510061804 | 66 | 136 | 0.0 | 1.0 | 0.00 | 1.27 | 0.00 | 94 | 1012.0 |
| 20260510060804 | 66 | 138 | 0.0 | 0.0 | 0.00 | 1.27 | 0.00 | 94 | 1011.9 |
| 20260510060304 | 66 | 138 | 0.0 | 0.0 | 0.00 | 1.27 | 0.00 | 94 | 1011.9 |
| 20260510055804 | 66 | 138 | 0.0 | 0.0 | 0.00 | 1.27 | 0.00 | 94 | 1012.0 |
| 20260510055306 | 66 | 138 | 0.0 | 0.0 | 0.00 | 1.27 | 0.00 | 94 | 1011.9 |
| 20260510054804 | 66 | 136 | 0.0 | 0.0 | 0.00 | 1.27 | 0.00 | 94 | 1011.9 |
| 20260510054304 | 67 | 136 | 0.0 | 0.0 | 0.00 | 1.27 | 0.00 | 94 | 1012.0 |
| 20260510053304 | 67 | 136 | 0.0 | 0.0 | 0.00 | 1.27 | 0.00 | 94 | 1011.9 |
| 20260510052804 | 67 | 136 | 0.0 | 1.0 | 0.00 | 1.27 | 0.00 | 94 | 1011.9 |
| 20260510052306 | 67 | 136 | 0.0 | 0.0 | 0.00 | 1.27 | 0.00 | 94 | 1012.0 |
| 20260510051804 | 67 | 136 | 0.0 | 0.0 | 0.00 | 1.27 | 0.00 | 94 | 1011.9 |
| 20260510051304 | 67 | 136 | 0.0 | 1.0 | 0.00 | 1.27 | 0.00 | 94 | 1011.8 |
| 20260510050842 | 67 | 141 | 1.0 | 3.0 | 0.00 | 1.27 | 0.00 | 94 | 1011.8 |
| 20260510050304 | 67 | 134 | 1.0 | 2.0 | 0.00 | 1.27 | 0.00 | 94 | 1012.0 |
| 20260510045804 | 67 | 188 | 0.0 | 0.0 | 0.00 | 1.27 | 1.33 | 94 | 1012.2 |
| 20260510045306 | 67 | 115 | 0.0 | 1.0 | 0.00 | 1.27 | 1.33 | 94 | 1012.3 |
| 20260510044804 | 67 | 123 | 0.0 | 1.0 | 0.00 | 1.27 | 1.33 | 94 | 1012.2 |
| 20260510044304 | 67 | 123 | 1.0 | 3.0 | 0.00 | 1.27 | 1.33 | 94 | 1012.2 |
| 20260510043804 | 67 | 142 | 1.0 | 2.0 | 0.00 | 1.27 | 1.33 | 94 | 1012.3 |
| 20260510043304 | 67 | 128 | 1.0 | 5.0 | 0.00 | 1.27 | 1.33 | 94 | 1012.3 |
| 20260510042804 | 67 | 122 | 1.0 | 5.0 | 0.00 | 1.27 | 1.33 | 94 | 1012.3 |
| 20260510042306 | 67 | 124 | 0.0 | 5.0 | 0.00 | 1.27 | 1.33 | 94 | 1012.2 |
| 20260510041804 | 67 | 157 | 0.0 | 3.0 | 0.00 | 1.27 | 1.33 | 94 | 1012.2 |
| 20260510041304 | 67 | 139 | 1.0 | 3.0 | 0.00 | 1.27 | 1.33 | 94 | 1012.2 |
| 20260510040304 | 67 | 160 | 0.0 | 1.0 | 0.00 | 1.27 | 1.33 | 94 | 1012.7 |
| 20260510035803 | 67 | 131 | 1.0 | 3.0 | 0.00 | 1.27 | 1.33 | 94 | 1012.8 |
| 20260510035306 | 67 | 131 | 0.0 | 1.0 | 0.00 | 1.27 | 1.33 | 94 | 1012.8 |
| 20260510034304 | 67 | 200 | 0.0 | 2.0 | 0.00 | 1.27 | 1.33 | 94 | 1013.1 |
| 20260510033804 | 67 | 136 | 0.0 | 1.0 | 0.00 | 1.27 | 1.33 | 94 | 1013.1 |
| 20260510033304 | 67 | 134 | 0.0 | 1.0 | 0.00 | 1.27 | 1.33 | 94 | 1013.1 |
| 20260510032306 | 67 | 198 | 0.0 | 0.0 | 0.00 | 1.27 | 1.33 | 94 | 1013.3 |
| 20260510031804 | 67 | 199 | 0.0 | 0.0 | 0.00 | 1.27 | 1.33 | 94 | 1013.2 |
| 20260510031304 | 68 | 199 | 0.0 | 0.0 | 0.00 | 1.27 | 1.33 | 94 | 1013.1 |
| 20260510030804 | 67 | 204 | 0.0 | 0.0 | 0.00 | 1.27 | 1.33 | 94 | 1012.9 |
| 20260510030304 | 67 | 201 | 0.0 | 0.0 | 0.00 | 1.27 | 1.33 | 94 | 1012.9 |
| 20260510025804 | 67 | 201 | 0.0 | 0.0 | 0.00 | 1.27 | 1.33 | 94 | 1012.8 |
| 20260510025306 | 68 | 204 | 0.0 | 0.0 | 0.00 | 1.27 | 1.33 | 94 | 1012.9 |
| 20260510023804 | 67 | 205 | 0.0 | 1.0 | 0.00 | 1.27 | 1.33 | 94 | 1012.8 |
| 20260510023303 | 68 | 197 | 0.0 | 1.0 | 0.00 | 1.27 | 1.33 | 94 | 1012.7 |
| 20260510022306 | 67 | 120 | 0.0 | 1.0 | 0.00 | 1.27 | 1.33 | 94 | 1012.6 |
| 20260510021804 | 68 | 129 | 1.0 | 3.0 | 0.01 | 1.27 | 1.33 | 94 | 1012.5 |
| 20260510020804 | 67 | 195 | 1.0 | 3.0 | 0.03 | 1.27 | 1.33 | 94 | 1012.2 |
| 20260510020304 | 67 | 133 | 1.0 | 3.0 | 0.05 | 1.27 | 1.33 | 94 | 1012.1 |
| 20260510015804 | 67 | 131 | 2.0 | 3.0 | 0.06 | 1.27 | 1.33 | 94 | 1012.1 |
| 20260510015306 | 68 | 144 | 1.0 | 5.0 | 0.06 | 1.27 | 1.33 | 94 | 1012.2 |
| 20260510014803 | 68 | 150 | 1.0 | 3.0 | 0.06 | 1.27 | 1.33 | 94 | 1012.2 |
| 20260510014304 | 68 | 135 | 2.0 | 5.0 | 0.06 | 1.27 | 1.33 | 94 | 1012.1 |
| 20260510013804 | 68 | 135 | 1.0 | 6.0 | 0.06 | 1.27 | 1.33 | 94 | 1012.3 |
| 20260510013304 | 67 | 145 | 2.0 | 6.0 | 0.06 | 1.27 | 1.33 | 94 | 1012.3 |
| 20260510012804 | 67 | 147 | 3.0 | 9.0 | 0.07 | 1.27 | 1.33 | 94 | 1012.0 |
| 20260510012306 | 68 | 129 | 3.0 | 7.0 | 0.07 | 1.27 | 1.33 | 94 | 1012.0 |
| 20260510011804 | 68 | 138 | 4.0 | 7.0 | 0.06 | 1.26 | 1.32 | 94 | 1012.0 |
| 20260510011303 | 68 | 149 | 2.0 | 5.0 | 0.07 | 1.26 | 1.32 | 94 | 1012.0 |
| 20260510010804 | 68 | 138 | 2.0 | 6.0 | 0.05 | 1.24 | 1.30 | 94 | 1012.1 |
| 20260510010304 | 68 | 135 | 2.0 | 7.0 | 0.03 | 1.22 | 1.28 | 94 | 1012.1 |
| 20260510005804 | 68 | 129 | 1.0 | 5.0 | 0.02 | 1.21 | 1.27 | 94 | 1012.2 |
| 20260510005306 | 68 | 133 | 2.0 | 3.0 | 0.02 | 1.21 | 1.27 | 94 | 1012.3 |
| 20260510004803 | 68 | 135 | 2.0 | 3.0 | 0.02 | 1.21 | 1.27 | 94 | 1012.3 |
| 20260510004303 | 68 | 144 | 0.0 | 3.0 | 0.03 | 1.21 | 1.27 | 94 | 1012.3 |
| 20260510003804 | 68 | 137 | 0.0 | 2.0 | 0.03 | 1.21 | 1.27 | 94 | 1012.3 |
| 20260510003304 | 68 | 132 | 2.0 | 3.0 | 0.03 | 1.21 | 1.27 | 94 | 1012.1 |
| 20260510002804 | 68 | 131 | 1.0 | 5.0 | 0.03 | 1.20 | 1.26 | 94 | 1012.0 |
| 20260510002306 | 68 | 135 | 2.0 | 5.0 | 0.03 | 1.20 | 1.26 | 94 | 1012.0 |
| 20260510001804 | 68 | 150 | 2.0 | 3.0 | 0.03 | 1.20 | 1.26 | 94 | 1012.0 |
| 20260510001304 | 68 | 182 | 1.0 | 3.0 | 0.02 | 1.19 | 1.25 | 94 | 1012.1 |
| 20260510000804 | 68 | 131 | 2.0 | 3.0 | 0.02 | 1.19 | 1.25 | 94 | 1012.0 |
| 20260510000305 | 68 | 137 | 1.0 | 3.0 | 0.02 | 1.19 | 1.25 | 94 | 1011.9 |
| 20260509235804 | 68 | 119 | 1.0 | 3.0 | 0.02 | 1.19 | 1.25 | 94 | 1012.0 |
| 20260509235307 | 68 | 133 | 0.0 | 3.0 | 0.02 | 1.19 | 1.25 | 94 | 1012.3 |
| 20260509234804 | 68 | 141 | 0.0 | 1.0 | 0.02 | 1.19 | 1.25 | 94 | 1012.4 |
| 20260509234304 | 68 | 231 | 0.0 | 0.0 | 0.01 | 1.18 | 1.24 | 94 | 1012.4 |
| 20260509233804 | 68 | 231 | 0.0 | 0.0 | 0.01 | 1.18 | 1.24 | 94 | 1012.3 |
| 20260509233304 | 68 | 229 | 0.0 | 0.0 | 0.01 | 1.18 | 1.24 | 94 | 1012.2 |
| 20260509232804 | 68 | 233 | 0.0 | 1.0 | 0.00 | 1.18 | 1.23 | 94 | 1012.3 |
| 20260509232306 | 68 | 203 | 0.0 | 0.0 | 0.01 | 1.18 | 1.23 | 94 | 1012.3 |
| 20260509231804 | 68 | 134 | 0.0 | 0.0 | 0.01 | 1.18 | 1.23 | 94 | 1012.1 |
| 20260509231304 | 68 | 129 | 0.0 | 1.0 | 0.01 | 1.18 | 1.23 | 94 | 1011.9 |
| 20260509230758 | 68 | 181 | 0.0 | 1.0 | 0.01 | 1.18 | 1.23 | 94 | 1011.9 |
| 20260509230257 | 68 | 130 | 0.0 | 1.0 | 0.01 | 1.18 | 1.23 | 94 | 1011.8 |
| 20260509225758 | 68 | 151 | 0.0 | 3.0 | 0.01 | 1.18 | 1.23 | 94 | 1012.0 |
| 20260509225258 | 68 | 158 | 0.0 | 3.0 | 0.01 | 1.18 | 1.23 | 94 | 1011.9 |
| 20260509224758 | 68 | 223 | 2.0 | 3.0 | 0.01 | 1.18 | 1.23 | 94 | 1011.7 |
| 20260509223757 | 68 | 152 | 0.0 | 3.0 | 0.01 | 1.18 | 1.23 | 94 | 1011.8 |
| 20260509223258 | 68 | 161 | 0.0 | 2.0 | 0.01 | 1.18 | 1.23 | 94 | 1011.7 |
| 20260509222757 | 68 | 149 | 0.0 | 2.0 | 0.01 | 1.18 | 1.23 | 94 | 1011.6 |
| 20260509222257 | 68 | 147 | 2.0 | 3.0 | 0.00 | 1.17 | 1.22 | 94 | 1011.3 |
| 20260509221757 | 68 | 133 | 2.0 | 3.0 | 0.00 | 1.17 | 1.22 | 94 | 1011.2 |
| 20260509221257 | 68 | 148 | 2.0 | 3.0 | 0.00 | 1.17 | 1.22 | 94 | 1011.2 |
| 20260509220757 | 68 | 127 | 0.0 | 0.0 | 0.01 | 1.17 | 1.22 | 94 | 1011.0 |
| 20260509215757 | 68 | 134 | 0.0 | 1.0 | 0.01 | 1.17 | 1.22 | 94 | 1010.9 |
| 20260509215257 | 68 | 142 | 0.0 | 2.0 | 0.02 | 1.17 | 1.22 | 94 | 1010.8 |
| 20260509214757 | 68 | 137 | 2.0 | 6.0 | 0.02 | 1.17 | 1.22 | 94 | 1010.8 |
| 20260509214258 | 68 | 164 | 1.0 | 3.0 | 0.03 | 1.17 | 1.22 | 93 | 1011.0 |
| 20260509213757 | 68 | 164 | 0.0 | 3.0 | 0.03 | 1.17 | 1.22 | 94 | 1011.4 |
| 20260509212757 | 68 | 141 | 3.0 | 6.0 | 0.04 | 1.17 | 1.22 | 93 | 1011.2 |
| 20260509212257 | 68 | 148 | 3.0 | 6.0 | 0.05 | 1.17 | 1.22 | 93 | 1011.2 |
| 20260509211758 | 68 | 133 | 2.0 | 6.0 | 0.06 | 1.17 | 1.22 | 93 | 1011.3 |
| 20260509211257 | 68 | 143 | 2.0 | 6.0 | 0.06 | 1.17 | 1.22 | 94 | 1011.2 |
| 20260509210758 | 68 | 131 | 3.0 | 5.0 | 0.05 | 1.16 | 1.21 | 94 | 1011.2 |
| 20260509210258 | 68 | 137 | 2.0 | 5.0 | 0.05 | 1.16 | 1.21 | 94 | 1011.2 |
| 20260509205758 | 68 | 141 | 3.0 | 6.0 | 0.06 | 1.16 | 1.21 | 94 | 1011.0 |
| 20260509205257 | 68 | 129 | 1.0 | 3.0 | 0.06 | 1.15 | 1.20 | 94 | 1010.9 |
| 20260509204757 | 68 | 96 | 2.0 | 3.0 | 0.07 | 1.15 | 1.20 | 94 | 1011.1 |
| 20260509203757 | 68 | 104 | 1.0 | 3.0 | 0.08 | 1.14 | 1.19 | 94 | 1011.0 |
| 20260509203257 | 68 | 118 | 1.0 | 2.0 | 0.08 | 1.14 | 1.19 | 94 | 1011.1 |
| 20260509202757 | 67 | 121 | 1.0 | 2.0 | 0.08 | 1.13 | 1.18 | 93 | 1011.2 |
| 20260509202257 | 67 | 129 | 1.0 | 2.0 | 0.07 | 1.12 | 1.17 | 93 | 1011.6 |
| 20260509201257 | 67 | 121 | 0.0 | 1.0 | 0.06 | 1.11 | 1.16 | 93 | 1011.8 |
| 20260509200758 | 67 | 121 | 0.0 | 0.0 | 0.06 | 1.11 | 1.16 | 93 | 1012.0 |
| 20260509200258 | 67 | 121 | 0.0 | 3.0 | 0.07 | 1.11 | 1.16 | 93 | 1012.0 |
| 20260509195758 | 67 | 121 | 0.0 | 2.0 | 0.06 | 1.10 | 1.15 | 93 | 1012.1 |
| 20260509195257 | 67 | 132 | 1.0 | 3.0 | 0.05 | 1.09 | 1.14 | 93 | 1012.3 |
| 20260509194757 | 67 | 143 | 1.0 | 1.0 | 0.06 | 1.08 | 1.13 | 93 | 1012.1 |
| 20260509194257 | 67 | 97 | 1.0 | 2.0 | 0.09 | 1.08 | 1.13 | 93 | 1012.1 |
| 20260509193758 | 67 | 118 | 0.0 | 3.0 | 0.09 | 1.06 | 1.11 | 93 | 1012.4 |
| 20260509193258 | 67 | 125 | 0.0 | 2.0 | 0.11 | 1.06 | 1.11 | 93 | 1012.5 |
| 20260509192257 | 67 | 114 | 0.0 | 1.0 | 0.11 | 1.05 | 1.10 | 93 | 1012.7 |
| 20260509191257 | 67 | 102 | 0.0 | 3.0 | 0.80 | 1.05 | 1.10 | 93 | 1012.5 |
| 20260509190757 | 67 | 135 | 0.0 | 3.0 | 1.01 | 1.05 | 1.10 | 93 | 1012.5 |
| 20260509190257 | 67 | 115 | 1.0 | 3.0 | 1.09 | 1.04 | 1.09 | 93 | 1012.3 |
| 20260509185757 | 67 | 99 | 0.0 | 3.0 | 1.09 | 1.04 | 1.09 | 93 | 1012.3 |
| 20260509185257 | 67 | 131 | 1.0 | 5.0 | 1.09 | 1.04 | 1.09 | 93 | 1012.4 |
| 20260509184757 | 67 | 133 | 2.0 | 9.0 | 1.07 | 1.02 | 1.07 | 93 | 1012.4 |
| 20260509183758 | 67 | 114 | 1.0 | 3.0 | 1.02 | 0.97 | 1.02 | 93 | 1012.5 |
| 20260509183257 | 67 | 120 | 1.0 | 3.0 | 1.00 | 0.95 | 1.00 | 93 | 1012.5 |
| 20260509182257 | 67 | 136 | 1.0 | 3.0 | 1.01 | 0.95 | 1.01 | 93 | 1012.5 |
| 20260509181800 | 67 | 117 | 3.0 | 8.0 | 0.99 | 0.93 | 0.99 | 93 | 1012.7 |